• In Hungary
  • List of Countries
  • For 7 days
  • Water Temperature
  • Satellite Maps
  • Weather Map
  • News
  • Weather Widgets
  • user-avatar
    Login

    Hourly Weather Nazino

    Today, 22 July, Sunday

    Time Temperature Precipitation Wind Pressure Humidity
    00:00 +11°C° 0 mm 4 mps 759 mmHg 51%
    01:00 +10°C° 0 mm 4 mps 759 mmHg 52%
    02:00 +10°C° 0 mm 4 mps 759 mmHg 53%
    03:00 +10°C° 0 mm 4 mps 759 mmHg 53%
    04:00 +10°C° 0 mm 4 mps 759 mmHg 54%
    05:00 +10°C° 0 mm 4 mps 759 mmHg 54%
    06:00 +12°C° 0 mm 4 mps 759 mmHg 49%
    07:00 +14°C° 0 mm 4 mps 759 mmHg 44%
    08:00 +17°C° 0 mm 4 mps 759 mmHg 39%
    09:00 +19°C° 0 mm 4 mps 759 mmHg 35%
    10:00 +20°C° 0 mm 5 mps 759 mmHg 32%
    11:00 +21°C° 0 mm 5 mps 759 mmHg 28%
    12:00 +22°C° 0 mm 5 mps 758 mmHg 27%
    13:00 +22°C° 0 mm 5 mps 758 mmHg 27%
    14:00 +23°C° 0 mm 5 mps 757 mmHg 26%
    15:00 +23°C° 0 mm 5 mps 757 mmHg 27%
    16:00 +23°C° 0 mm 5 mps 757 mmHg 28%
    17:00 +23°C° 0 mm 5 mps 757 mmHg 28%
    18:00 +21°C° 0 mm 4 mps 757 mmHg 35%
    19:00 +19°C° 0 mm 3 mps 757 mmHg 41%
    20:00 +17°C° 0 mm 3 mps 757 mmHg 47%
    21:00 +16°C° 0 mm 3 mps 757 mmHg 49%
    22:00 +14°C° 0 mm 3 mps 756 mmHg 52%
    23:00 +13°C° 0 mm 3 mps 756 mmHg 55%

    Tomorrow, 23 July, Monday

    Time Temperature Precipitation Wind Pressure Humidity
    00:00 +13°C° 0 mm 2 mps 756 mmHg 56%
    01:00 +12°C° 0 mm 2 mps 756 mmHg 58%
    02:00 +12°C° 0 mm 2 mps 756 mmHg 60%
    03:00 +12°C° 0 mm 2 mps 756 mmHg 59%
    04:00 +13°C° 0 mm 2 mps 756 mmHg 58%
    05:00 +13°C° 0 mm 3 mps 756 mmHg 57%
    06:00 +16°C° 0 mm 3 mps 755 mmHg 50%
    07:00 +19°C° 0 mm 3 mps 755 mmHg 44%
    08:00 +21°C° 0 mm 3 mps 755 mmHg 38%
    09:00 +24°C° 0 mm 3 mps 754 mmHg 37%
    10:00 +25°C° 0 mm 3 mps 754 mmHg 36%
    11:00 +27°C° 0 mm 4 mps 753 mmHg 35%
    12:00 +27°C° 0 mm 4 mps 753 mmHg 35%
    13:00 +28°C° 0 mm 4 mps 753 mmHg 35%
    14:00 +29°C° 0 mm 4 mps 752 mmHg 35%
    15:00 +29°C° 0 mm 4 mps 752 mmHg 37%
    16:00 +28°C° 0 mm 4 mps 752 mmHg 40%
    17:00 +28°C° 0 mm 3 mps 752 mmHg 43%
    18:00 +26°C° 0 mm 3 mps 752 mmHg 48%
    19:00 +25°C° 0 mm 3 mps 752 mmHg 54%
    20:00 +23°C° 0 mm 2 mps 752 mmHg 59%
    21:00 +21°C° 0 mm 3 mps 752 mmHg 62%
    22:00 +20°C° 0 mm 3 mps 752 mmHg 65%
    23:00 +19°C° 0 mm 3 mps 752 mmHg 67%

    Day after tomorrow, 24 July, Tuesday

    Time Temperature Precipitation Wind Pressure Humidity
    00:00 +18°C° 0 mm 3 mps 752 mmHg 68%
    01:00 +18°C° 0 mm 4 mps 752 mmHg 68%
    02:00 +18°C° 0 mm 4 mps 752 mmHg 69%
    03:00 +18°C° 0 mm 4 mps 752 mmHg 68%
    04:00 +17°C° 0 mm 4 mps 752 mmHg 67%
    05:00 +17°C° 0 mm 4 mps 753 mmHg 65%
    06:00 +17°C° 0 mm 5 mps 753 mmHg 60%
    07:00 +19°C° 0 mm 5 mps 753 mmHg 54%
    08:00 +20°C° 0 mm 6 mps 754 mmHg 48%
    09:00 +21°C° 0 mm 6 mps 754 mmHg 41%
    10:00 +22°C° 0 mm 6 mps 754 mmHg 35%
    11:00 +23°C° 0 mm 6 mps 753 mmHg 29%
    12:00 +23°C° 0 mm 6 mps 754 mmHg 28%
    13:00 +24°C° 0 mm 6 mps 754 mmHg 26%
    14:00 +24°C° 0 mm 6 mps 754 mmHg 25%
    15:00 +24°C° 0 mm 6 mps 754 mmHg 25%
    16:00 +25°C° 0 mm 5 mps 754 mmHg 26%
    17:00 +25°C° 0 mm 5 mps 754 mmHg 26%
    18:00 +22°C° 0 mm 4 mps 755 mmHg 31%
    19:00 +20°C° 0 mm 4 mps 755 mmHg 36%
    20:00 +18°C° 0 mm 3 mps 755 mmHg 40%
    21:00 +17°C° 0 mm 3 mps 756 mmHg 42%
    22:00 +16°C° 0 mm 3 mps 756 mmHg 44%
    23:00 +14°C° 0 mm 3 mps 756 mmHg 47%

    25 July, Wednesday

    Time Temperature Precipitation Wind Pressure Humidity
    00:00 +13°C° 0 mm 3 mps 756 mmHg 49%
    01:00 +12°C° 0 mm 3 mps 757 mmHg 52%
    02:00 +12°C° 0 mm 3 mps 757 mmHg 55%
    03:00 +13°C° 0 mm 2 mps 757 mmHg 55%
    04:00 +13°C° 0 mm 2 mps 757 mmHg 56%
    05:00 +13°C° 0 mm 2 mps 758 mmHg 56%
    06:00 +16°C° 0 mm 3 mps 758 mmHg 50%
    07:00 +18°C° 0 mm 3 mps 758 mmHg 44%
    08:00 +20°C° 0 mm 3 mps 758 mmHg 38%
    09:00 +21°C° 0 mm 3 mps 757 mmHg 37%
    10:00 +22°C° 0 mm 3 mps 757 mmHg 37%
    11:00 +24°C° 0 mm 3 mps 757 mmHg 36%
    12:00 +25°C° 0 mm 4 mps 756 mmHg 37%
    13:00 +26°C° 0 mm 4 mps 756 mmHg 39%
    14:00 +27°C° 0 mm 4 mps 756 mmHg 41%
    15:00 +27°C° 0.1 mm 4 mps 756 mmHg 43%
    16:00 +27°C° 0.1 mm 3 mps 756 mmHg 45%
    17:00 +27°C° 0.1 mm 3 mps 755 mmHg 48%
    18:00 +25°C° 0.1 mm 3 mps 755 mmHg 54%
    19:00 +24°C° 0.1 mm 3 mps 755 mmHg 59%
    20:00 +22°C° 0.1 mm 3 mps 755 mmHg 65%
    21:00 +21°C° 0.2 mm 3 mps 755 mmHg 72%
    22:00 +20°C° 0.2 mm 3 mps 754 mmHg 79%
    23:00 +19°C° 0.2 mm 3 mps 754 mmHg 86%

    26 July, Thursday

    Time Temperature Precipitation Wind Pressure Humidity
    00:00 +18°C° 0 mm 3 mps 754 mmHg 88%
    01:00 +18°C° 0 mm 3 mps 754 mmHg 90%
    02:00 +17°C° 0 mm 3 mps 754 mmHg 92%
    03:00 +17°C° 0 mm 3 mps 755 mmHg 92%
    04:00 +18°C° 0 mm 3 mps 755 mmHg 91%
    05:00 +18°C° 0 mm 3 mps 755 mmHg 91%
    06:00 +19°C° 0 mm 4 mps 755 mmHg 83%
    07:00 +21°C° 0 mm 4 mps 755 mmHg 76%
    08:00 +22°C° 0 mm 5 mps 755 mmHg 68%
    09:00 +22°C° 0.1 mm 5 mps 755 mmHg 65%
    10:00 +23°C° 0.1 mm 5 mps 755 mmHg 61%
    11:00 +23°C° 0.1 mm 6 mps 755 mmHg 57%
    12:00 +22°C° 0 mm 6 mps 755 mmHg 57%
    13:00 +22°C° 0 mm 6 mps 755 mmHg 56%
    14:00 +21°C° 0 mm 6 mps 756 mmHg 56%
    15:00 +20°C° 0 mm 6 mps 756 mmHg 59%
    16:00 +19°C° 0 mm 5 mps 756 mmHg 62%
    17:00 +17°C° 0 mm 5 mps 756 mmHg 66%
    18:00 +17°C° 0 mm 5 mps 757 mmHg 67%
    19:00 +18°C° 0 mm 4 mps 757 mmHg 68%
    20:00 +17°C° 0 mm 4 mps 757 mmHg 69%
    21:00 +17°C° 0 mm 4 mps 757 mmHg 68%
    22:00 +15°C° 0 mm 4 mps 757 mmHg 68%
    23:00 +15°C° 0 mm 4 mps 757 mmHg 67%

    27 July, Friday

    Time Temperature Precipitation Wind Pressure Humidity
    00:00 +14°C° 0 mm 3 mps 757 mmHg 68%
    01:00 +14°C° 0 mm 3 mps 757 mmHg 69%
    02:00 +13°C° 0 mm 3 mps 757 mmHg 70%
    03:00 +13°C° 0 mm 3 mps 757 mmHg 71%
    04:00 +13°C° 0 mm 3 mps 757 mmHg 72%
    05:00 +12°C° 0 mm 4 mps 757 mmHg 72%
    06:00 +14°C° 0 mm 4 mps 757 mmHg 65%
    07:00 +15°C° 0 mm 4 mps 756 mmHg 58%
    08:00 +17°C° 0 mm 5 mps 756 mmHg 50%
    09:00 +19°C° 0 mm 5 mps 756 mmHg 47%
    10:00 +20°C° 0 mm 5 mps 756 mmHg 43%
    11:00 +21°C° 0 mm 5 mps 756 mmHg 39%
    12:00 +22°C° 0 mm 5 mps 755 mmHg 38%
    13:00 +22°C° 0 mm 5 mps 755 mmHg 36%
    14:00 +23°C° 0 mm 4 mps 755 mmHg 34%
    15:00 +23°C° 0 mm 4 mps 755 mmHg 35%
    16:00 +23°C° 0 mm 4 mps 755 mmHg 36%
    17:00 +23°C° 0 mm 4 mps 755 mmHg 37%
    18:00 +21°C° 0 mm 3 mps 755 mmHg 44%
    19:00 +19°C° 0 mm 2 mps 755 mmHg 51%
    20:00 +17°C° 0 mm 2 mps 755 mmHg 58%
    21:00 +16°C° 0 mm 2 mps 755 mmHg 61%
    22:00 +15°C° 0 mm 2 mps 754 mmHg 64%
    23:00 +14°C° 0 mm 2 mps 754 mmHg 67%
    Show more